Location: B�rgermoos
(47.6500°N, 9.0667°E)
Time: 00:29:50
(UTC+00:00)

Tiros 1 - Pass Details

Date: 07 August 2021
Orbit: 630 x 663 km, 48.4° (Epoch: 19 September)

Event Time Altitude Azimuth Distance (km) Brightness Sun altitude
Rises 20:39:08 0° 286° (WNW) 2,979 11.6 -15.7°
Reaches altitude 10° 20:41:38 10° 277° (W) 2,059 10.5 -16.0°
Maximum altitude 20:45:56 34° 213° (SSW) 1,060 8.1 -16.5°
Enters shadow 20:47:41 26° 172° (S) 1,281 8.2 -16.7°
Drops below altitude 10° 20:50:09 10° 149° (SSE) 2,031 - -16.9°
Sets 20:52:37 0° 140° (SE) 2,931 - -17.2°
